Kuantan, Malaysia

6:43 AM MYT on November 22, 2019 (GMT +0800)
Kuantan

Weather History for WMKD - August, 2019

Change the Weather History Date:

Sunday, August 4, 2019

  Actual Average Record
Temperature  
Mean Temperature 86 °F -  
Max Temperature 95 °F 90 °F - ()
Min Temperature 77 °F 72 °F - ()
Cooling Degree Days 21    
Growing Degree Days 36 (Base 50)    
Moisture  
Dew Point 77 °F    
Average Humidity 78    
Maximum Humidity 94    
Minimum Humidity 41    
Precipitation  
Precipitation 0.63 in 0.24 in - ()
Sea Level Pressure  
Sea Level Pressure 29.79 in    
Wind  
Wind Speed 3 mph ()    
Max Wind Speed 7 mph    
Max Gust Speed -    
Visibility 5.4 miles    
Events Rain    
T = Trace of Precipitation, MM = Missing Value Source: Averaged Metar Reports

Daily Weather History Graph

Daily Weather History Graph

Search for Another Location

Airport or City:

Astronomy

Aug. 04, 2019 Rise Set
Actual Time 7:05 AM MYT 7:21 PM MYT
Civil Twilight 6:43 AM MYT 7:43 PM MYT
Nautical Twilight 6:18 AM MYT 8:08 PM MYT
Astronomical Twilight 5:52 AM MYT 8:33 PM MYT
Moon 9:57 AM MYT (8/4) 10:26 PM MYT (8/4)
Length of Visible Light 12h 59m
Length of Day
12h 16m
Waxing Crescent, 13% of the Moon is Illuminated
Aug 4
Waxing Crescent
Aug 8
First Quarter
Aug 15
Full
Aug 23
Last Quarter
Aug 30
New

Hourly Weather History & Observations

Time (MYT) Temp. Heat Index Dew Point Humidity Pressure Visibility Wind Dir Wind Speed Gust Speed Precip Events Conditions
12:00 AM 80.6 °F 87.1 °F 77.0 °F 89% 29.83 in 6.2 mi Calm Calm - N/A   Mostly Cloudy
1:00 AM 80.6 °F 87.1 °F 77.0 °F 89% 29.83 in 6.2 mi Calm Calm - N/A   Mostly Cloudy
2:00 AM 80 °F - 77 °F 87% 29.83 in 7 mi SSW 2.3 mph - -   Haze
2:00 AM 80.6 °F 87.1 °F 77.0 °F 89% 29.83 in 6.2 mi Variable 2.3 mph - N/A   Mostly Cloudy
3:00 AM 80.6 °F 87.1 °F 77.0 °F 89% 29.83 in 2.5 mi Calm Calm - N/A   Haze
4:00 AM 78.8 °F - 77.0 °F 94% 29.80 in 2.5 mi Variable 2.3 mph - N/A   Haze
5:00 AM 78 °F - 76 °F 91% 29.81 in 2 mi SSW 3.5 mph - -   Haze
5:00 AM 78.8 °F - 75.2 °F 89% 29.80 in 2.5 mi Variable 3.5 mph - N/A   Haze
6:00 AM 78.8 °F - 75.2 °F 89% 29.80 in 2.5 mi SW 3.5 mph - N/A   Haze
7:00 AM 77.0 °F - 75.2 °F 94% 29.80 in 5.0 mi Variable 2.3 mph - N/A   Mostly Cloudy
8:00 AM 78 °F - 74 °F 86% 29.83 in 6 mi SSW 5.8 mph - -   Haze
8:00 AM 78.8 °F - 75.2 °F 89% 29.83 in 6.2 mi SSW 5.8 mph - N/A   Mostly Cloudy
9:00 AM 82.4 °F 89.5 °F 75.2 °F 79% 29.83 in 6.2 mi Variable 3.5 mph - N/A   Mostly Cloudy
10:00 AM 86.0 °F 96.9 °F 77.0 °F 74% 29.83 in 6.2 mi Variable 5.8 mph - N/A   Mostly Cloudy
11:00 AM 89.6 °F 99.8 °F 75.2 °F 62% 29.83 in 6.2 mi Variable 6.9 mph - N/A   Mostly Cloudy
12:00 PM 91.4 °F 102.5 °F 75.2 °F 59% 29.80 in 6.2 mi Variable 6.9 mph - N/A   Mostly Cloudy
1:00 PM 91.4 °F 105.1 °F 77.0 °F 63% 29.80 in 6.2 mi Variable 5.8 mph - N/A   Mostly Cloudy
2:00 PM 92 °F - 76 °F 52% 29.77 in 11 mi South 4.6 mph - -   Haze
2:00 PM 91.4 °F 105.1 °F 77.0 °F 63% 29.77 in 6.2 mi South 4.6 mph - N/A   Mostly Cloudy
3:00 PM 91.4 °F 102.5 °F 75.2 °F 59% 29.74 in 6.2 mi Variable 5.8 mph - N/A   Mostly Cloudy
4:00 PM 95.0 °F 109.7 °F 77.0 °F 56% 29.71 in 6.2 mi Variable 4.6 mph - N/A   Mostly Cloudy
5:00 PM 95 °F - 74 °F 41% 29.72 in 11 mi SSW 4.6 mph - -   Haze
5:00 PM 95.0 °F 104.5 °F 73.4 °F 49% 29.71 in 6.2 mi Variable 4.6 mph - N/A   Mostly Cloudy
6:00 PM 91.4 °F 111.0 °F 80.6 °F 71% 29.71 in 6.2 mi Variable 4.6 mph - N/A   Mostly Cloudy
7:00 PM 87.8 °F 102.5 °F 78.8 °F 75% 29.74 in 6.2 mi Variable 2.3 mph - N/A   Mostly Cloudy
8:00 PM 82 °F - 79 °F 89% 29.76 in 2 mi East 5.8 mph - - Rain Rain
8:00 PM 82.4 °F 92.4 °F 78.8 °F 89% 29.74 in 1.9 mi Variable 5.8 mph - N/A Rain Rain
9:00 PM 80.6 °F 87.1 °F 77.0 °F 89% 29.77 in 5.0 mi SE 4.6 mph - N/A Rain Light Rain
10:00 PM 80.6 °F 88.1 °F 78.8 °F 94% 29.80 in 5.0 mi Calm Calm - N/A   Mostly Cloudy
11:00 PM 80 °F - 78 °F 92% 29.80 in 5 mi South 2.3 mph - -   Haze
11:00 PM 80.6 °F 88.1 °F 78.8 °F 94% 29.80 in 5.0 mi Variable 2.3 mph - N/A   Mostly Cloudy